STARLINK-32804, 62846

Orbit data source: Space-Track

STARLINK-32804, 62846 is a payload satellite owned by SpaceX/Seattle (US) in LEO that was launched on Mon, 27 Jan 2025 UTC via an FALCON 9 launch vehicle from the Air Force Eastern Test Range (AFETR). Payload-class satellites include a variety of spacecraft equipped with specific instruments for various scientific and technological missions. These include communications satellites like Starlink; space stations such as the ISS; scientific satellites like the Hubble; Earth observation satellites from companies like Planet Labs, Umbra, and HawkEye 360; GPS; miniature CubeSats for education and research; and military/defense satellites.

Loading next visibility...
Identifier
62846, 2025-019T
Orbit
LEO
Country
Flag of USUS
Related business
Manufacturer
SpaceX/Seattle
Mission
Operational Commercial Communications
Bus & Motor
STARLINK V2M, Unknown motor
Mass
730 kg wet, ~700 kg dry
Launch date (UTC)
2025-01-27 (1 year ago)
Launch vehicle
FALCON 9
Launch site
Air Force Eastern Test Range (AFETR)
Object type
Payload
Rocket body
Debris
Shape & HBR
Box + 2 Pan, 17.7 m
Radar Cross Section
33.884 m², Large (>1 m²)

Expand to show TLE details & history
Last TLE update: 11 hours ago

TLE from 11 hours ago
0 STARLINK-32804
1 62846U 25019T   26122.13078912  .00013426  00000-0  49650-3 0  9990
2 62846  42.9969 147.2042 0001571 182.7850 177.2993 15.27582118 70423
Epoch: 2026-05-02T03:08Z
TLE epoch observation values (Epoch: 2026-05-02T03:08:20.179Z)
Latitude
-0.00005°
Longitude
-119.93303°
Altitude
483.894 km
Speed
7.625 km/s
True Right ascension
09h 48m 48s
True Declination
0° 00' 00"
Sunlit
Object was in daylight at epoch
Visualization orbit readout
Latitude
Unknown
Longitude
Unknown
Altitude
Unknown
Speed
Unknown
Apparent Right ascension
Unknown
Apparent Declination
Unknown
Sunlit
N/A
Visualization observer readout
Local Sidereal Time
21:57:23
Azimuth
Unknown
Elevation
Unknown
Doppler factor
Unknown
Orbital elements
Apogee altitude
486.067 km
Perigee altitude
483.91 km
Semi-major axis
6,863.125 km
Eccentricity
0.00016
Inclination
42.9969°
RAAN
147.2042°
Arg. of periapsis
182.785°
True anomaly
177.30015°
Mean anomaly
177.2993°
Eccentric anomaly
177.29972°
Mean motion
3.81733 °/min
Orbital period
94.31 mins
BSTAR
0.0004965
Loading maneuver chart data...
Computing Atmospheric mass density...
Loading historical data...
Loading historical data...
Loading historical data...
Loading historical data...
Loading historical data...
Loading historical data...
Loading historical data...

Documentation

Showing up to 5 results
|